Regional Weather Roundup
Issued by NWS Green Bay, WI

Home | Current Version | Previous Version | Graphics & Text | Print | Product List | Glossary Off
Versions: 1 2 3 4 5 6 7 8 9 10 11 12 13 14 15 16 17 18 19 20 21 22 23 24 25 26 27 28 29 30 31 32 33 34 35 36 37 38 39 40 41 42 43 44 45 46 47 48 49 50

000
ASUS43 KGRB 050211
RWRGRB

NORTH-CENTRAL AND NORTHEAST WISCONSIN REGIONAL WEATHER ROUNDUP
NATIONAL WEATHER SERVICE GREEN BAY WI
900 PM CDT WED MAY 04 2016

WIZ005-009-010>012-018-019-050300-
NORTH CENTRAL WISCONSIN

CITY           SKY/WX    TMP DP  RH WIND       PRES   REMARKS
IRONWOOD         N/A     43  34  70 CALM      29.97R
MANITOWISH WTR CLEAR     43  32  65 CALM      29.97S
ARBOR VITAE    CLEAR     42  31  65 CALM      29.97S
EAGLE RIVER    CLEAR     40  29  65 CALM      29.96S
LAND O LAKES   CLEAR     36  31  81 CALM      29.97S
RHINELANDER    CLEAR     43  30  60 N5        29.97R
PHILLIPS       CLEAR     45  31  57 N7        29.97R
ANTIGO         CLEAR     41  32  70 N12       29.95R
TOMAHAWK       CLEAR     43  31  62 N3        29.97S
MERRILL        NOT AVBL
$$

WIZ013-073-050300-
NORTHEAST WISCONSIN

CITY           SKY/WX    TMP DP  RH WIND       PRES   REMARKS
IRON MOUNTAIN  PTCLDY    40  30  67 N8        29.96R
MARINETTE      CLEAR     41  30  65 NE9       29.97R
OCONTO         PTCLDY    42  32  68 N8        29.95R
$$

WIZ017-030-035>037-045-050300-
CENTRAL WISCONSIN

CITY           SKY/WX    TMP DP  RH WIND       PRES   REMARKS
MEDFORD        CLEAR     44  31  60 N5        29.96R
WAUSAU         CLEAR     48  31  51 N7        29.94R
MOSINEE        CLEAR     46  30  53 N8        29.96R
MARSHFIELD     CLEAR     49  31  49 NE8       29.94R
WISC RAPIDS    CLEAR     49  29  46 N13       29.95R
STEVENS POINT  CLEAR     46  31  56 N8        29.95R
WAUPACA        CLEAR     50  32  49 N8        29.93R
SHAWANO        CLEAR     47  34  60 NE14      29.95R
CLINTONVILLE   CLEAR     46  32  57 NE9       29.94R
WAUTOMA        CLEAR     50  32  50 MISG      29.93
$$

WIZ038-039-048-051-050300-
FOX VALLEY

CITY           SKY/WX    TMP DP  RH WIND       PRES   REMARKS
NWS GREEN BAY  PTCLDY    45  33  63 N16       29.94R
APPLETON       PTCLDY    45  32  61 NE13      29.91R
OSHKOSH        PTCLDY    47  34  60 N14       29.91R
FOND DU LAC    MOCLDY    47  36  65 NE15      29.91R
$$

WIZ022-050-052-050300-
EAST CENTRAL WISCONSIN

CITY           SKY/WX    TMP DP  RH WIND       PRES   REMARKS
EPHRAIM        FAIR      39  32  74 N16G24    29.93R
STURGEON BAY   CLEAR     41  30  65 N18       29.96R
MANITOWOC      CLEAR     43  34  70 VRB7      29.93R
SHEBOYGAN      CLEAR     37  33  85 NE8       29.91R
$$

LMZ563-521-522-541>543-050300-
LAKESHORE

STATION/POSITION TIME  TEMP    WIND        PRES    VSBY  WAVE
                       AIR SEA DIR/SP/G                  HT/PER
                 (UTC) (F)     (DEG/KT/KT) (MB)    (MI)  (FT/S)
SHEBOYGAN LKSHOR 0200   41      20/ 20/ 23 1013.6R
KEWAUNEE LKSHORE 0100                      1012.1R
ALGOMA MARINA    0100           20/ 12/ 15   N/A
NORTHPORT PIER   0120   41     330/ 17/ 24 1013.5R
N MID LAKE BUOY  0150   40 38  340/ 17/ 21 1012.9R         3/ 5
CHAMBERS ISLAND  0140   42     330/ 18/ 23 1014.2R
MENOMINEE LKSHOR 0100                      1012.6R
$$




USA.gov is the U.S. government's official web portal to all federal, state and local government web resources and services.